Regional Weather Roundup
Issued by NWS

Home | Current Version | Previous Version | Text Only | Print | Product List | Glossary Off
Versions: 1 2 3 4 5 6 7 8 9 10 11 12 13 14 15 16 17 18 19 20 21 22 23 24 25 26 27 28 29 30 31 32 33 34 35 36 37 38 39 40 41 42 43 44 45 46 47 48 49 50

000
ASUS43 KLMK 100110
RWRKY
KENTUCKY REGIONAL WEATHER ROUNDUP
NATIONAL WEATHER SERVICE LOUISVILLE KY
800 PM EST TUE FEB 09 2016

NOTE "FAIR" INDICATES FEW OR NO CLOUDS BELOW 12,000 FEET
WITH NO SIGNIFICANT WEATHER AND/OR OBSTRUCTIONS TO VISIBILITY.

KYZ001>023-026-027-061>063-070>075-100200-
WESTERN AND SOUTH CENTRAL KENTUCKY

CITY           SKY/WX    TMP DP  RH WIND       PRES   REMARKS
PADUCAH        CLOUDY    22  13  68 W3        30.10R
HENDERSON      CLOUDY    21  12  68 W16       30.08R WCI   7
OWENSBORO      FLURRIES  21  15  78 W15       30.06S WCI   8
HOPKINSVILLE   FLURRIES  21  15  78 NW8       30.08R WCI  11
BOWLING GREEN  CLOUDY    21  14  74 W5        30.06R WCI  15
GLASGOW        MOCLDY    20  15  79 W10G16    30.03R WCI   9
$$

KYZ024-025-028>034-038-045-046-053-100200-
NORTH CENTRAL KENTUCKY

CITY           SKY/WX    TMP DP  RH WIND       PRES   REMARKS
LOUISVILLE/SDF CLOUDY    22  14  71 W15       29.99R WCI   9
LOUISVILLE/LOU CLOUDY    22  13  68 W14       29.99R WCI   9
FORT KNOX      LGT SNOW  19  16  86 W13       29.97R FOG     WCI   7
$$

KYZ035>037-039>044-047>052-055>060-089>105-100200-
NORTHEAST KENTUCKY

CITY           SKY/WX    TMP DP  RH WIND       PRES   REMARKS
LEXINGTON      CLOUDY    22  14  71 W14       29.92R WCI   9
COVINGTON      FLURRIES  22  16  78 W16       29.89R WCI   8
FRANKFORT      NOT AVBL
$$

KYZ054-064>069-076>088-106>120-100200-
SOUTHEAST KENTUCKY

CITY           SKY/WX    TMP DP  RH WIND       PRES   REMARKS
JACKSON        CLOUDY    22  14  71 VRB6      29.88R WCI  14
LONDON         CLOUDY    22  16  78 W9        29.93R WCI  12
SOMERSET       CLOUDY    21  16  79 W10G17    29.99R WCI  10
MIDDLESBORO    CLOUDY    24  16  73 NW3       29.93S
MONTICELLO     FLURRIES  22  14  71 W15       29.99R WCI   9
$$




USA.gov is the U.S. government's official web portal to all federal, state and local government web resources and services.